レモン-パンスターズ彗星

445P/Lemmon-PanSTARRS (2014)

English version
Home page
Updated on August 6, 2022

---------------------------------------------------------------------

・ プロフィール

符号 445P/2014 R5
発見日 2014年9月14日、19日
発見光度 19.1等、20.5等
発見者 Mt. Lemmon Survey, Pan-STARRS 1 telescope (Haleakala)

・ 写真集

・ 軌道要素

                    Epoch = 2014 July  2.0 TT
     T = 2014 June 17.58594 TT        Peri. = 213.87614
     e = 0.4127512                    Node  = 126.54501 2000.0
     q = 2.3863022 AU                 Incl. =   1.08823
       a =  4.0635286 AU   n = 0.12032312   P =   8.19 years

・ 光度変化

        m1 = 14.0 + 5 logΔ + 10.0 log r

---------------------------------------------------------------------

軌道要素は、CBET 5149に掲載されたものです。
光度グラフはComet for Windowsで作成したものです。

---------------------------------------------------------------------

Copyright(C) Seiichi Yoshida (comet@aerith.net). All rights reserved.